Вернуться в каталог

STARLINK-31509

АктивенСвязьVLEO
NORAD 59533·PAYLOAD·🇺🇸 United States

Запущен Apr 17, 2024 с Cape Canaveral Space Force Station

Loading…

Ближайшие Пролёты (ближайшие 24 часа)

TLE

СвежийSource: CelesTrak SupGP

Эпоха: Sep 14, 2026, 20:48 UTC

1 59533C 24073Y   26257.86715278 -.00020129  00000+0 -72909-3 0  2579
2 59533  43.0038 330.0396 0001691 273.6449  76.7948 15.27588045    18

Отслеживайте STARLINK-31509 в реальном времени с AllMySat

Download on the App Store